Siren, WI

6:04 PM CST on January 19, 2018 (GMT -0600)
Burnett County

Weather History for KRZN - April, 2013

Change the Weather History Date:

Thursday, April 4, 2013

  Actual Average Record
Temperature  
Mean Temperature 39 °F -  
Max Temperature 46 °F - - ()
Min Temperature 32 °F - - ()
Degree Days  
Heating Degree Days 26    
Moisture  
Dew Point 24 °F    
Average Humidity 55    
Maximum Humidity 87    
Minimum Humidity 29    
Precipitation  
Precipitation 0.00 in - - ()
Sea Level Pressure  
Sea Level Pressure 30.03 in    
Wind  
Wind Speed 12 mph (NNW)    
Max Wind Speed 17 mph    
Max Gust Speed 28 mph    
Visibility 10 miles    
Events      
Averages and records for this station are not official NWS values.
T = Trace of Precipitation, MM = Missing Value Source: NWS Daily Summary

Daily Weather History Graph

Daily Weather History Graph

Search for Another Location

Airport or City:

Trip Planner

Search our weather history database for the weather conditions in past years. The results will help you decide how hot, cold, wet, or windy it might be!

Date:

Astronomy

Apr. 04, 2013 Rise Set
Actual Time 6:43 AM CDT 7:42 PM CDT
Civil Twilight 6:13 AM CDT 8:12 PM CDT
Nautical Twilight 5:36 AM CDT 8:48 PM CDT
Astronomical Twilight 4:58 AM CDT 9:27 PM CDT
Moon 3:27 AM CDT (4/4) 1:44 PM CDT (4/4)
Length of Visible Light 13h 59m
Length of Day
12h 58m
Waning Crescent, 33% of the Moon is Illuminated
Apr 4
Waning Crescent
Apr 10
New
Apr 18
First Quarter
Apr 25
Full
May 2
Last Quarter

Hourly Weather History & Observations

Time (CDT) Temp. Windchill Dew Point Humidity Pressure Visibility Wind Dir Wind Speed Gust Speed Precip Events Conditions
12:15 AM 39.2 °F 30.8 °F 28.4 °F 65% 30.01 in 10.0 mi SW 15.0 mph 27.6 mph N/A   Overcast
12:35 AM 39.2 °F 30.8 °F 28.4 °F 65% 30.00 in 10.0 mi SW 15.0 mph 24.2 mph N/A   Overcast
12:55 AM 39.2 °F 33.0 °F 28.4 °F 65% 30.00 in 10.0 mi WSW 9.2 mph 21.9 mph N/A   Overcast
1:15 AM 39.2 °F 31.6 °F 28.4 °F 65% 30.00 in 10.0 mi WSW 12.7 mph 23.0 mph N/A   Overcast
1:35 AM 39.2 °F 30.8 °F 28.4 °F 65% 29.99 in 10.0 mi SW 15.0 mph 21.9 mph N/A   Overcast
1:55 AM 39.2 °F 30.8 °F 28.4 °F 65% 29.98 in 10.0 mi WSW 15.0 mph 20.7 mph N/A   Mostly Cloudy
2:15 AM 39.2 °F 30.8 °F 28.4 °F 65% 29.97 in 10.0 mi SW 15.0 mph 24.2 mph N/A   Mostly Cloudy
2:35 AM 41.0 °F 32.8 °F 28.4 °F 61% 29.96 in 10.0 mi WSW 16.1 mph 21.9 mph N/A   Overcast
2:55 AM 41.0 °F 33.9 °F 28.4 °F 61% 29.95 in 10.0 mi WSW 12.7 mph 27.6 mph N/A   Scattered Clouds
3:15 AM 41.0 °F 32.8 °F 28.4 °F 61% 29.94 in 10.0 mi WSW 16.1 mph 26.5 mph N/A   Clear
3:35 AM 41.0 °F 33.1 °F 28.4 °F 61% 29.94 in 10.0 mi WSW 15.0 mph 24.2 mph N/A   Clear
3:55 AM 41.0 °F 32.8 °F 28.4 °F 61% 29.94 in 10.0 mi WSW 16.1 mph 25.3 mph N/A   Clear
4:15 AM 39.2 °F 30.8 °F 28.4 °F 65% 29.95 in 10.0 mi West 15.0 mph - N/A   Clear
4:35 AM 41.0 °F 34.7 °F 28.4 °F 61% 29.95 in 10.0 mi West 10.4 mph 16.1 mph N/A   Clear
4:55 AM 39.2 °F 32.5 °F 28.4 °F 65% 29.95 in 10.0 mi West 10.4 mph 16.1 mph N/A   Clear
5:15 AM 39.2 °F 33.6 °F 30.2 °F 70% 29.95 in 10.0 mi West 8.1 mph - N/A   Clear
5:35 AM 39.2 °F 33.0 °F 30.2 °F 70% 29.95 in 10.0 mi West 9.2 mph - N/A   Clear
5:55 AM 39.2 °F 34.2 °F 30.2 °F 70% 29.96 in 10.0 mi West 6.9 mph - N/A   Clear
6:15 AM 39.2 °F 33.6 °F 30.2 °F 70% 29.96 in 10.0 mi West 8.1 mph - N/A   Clear
6:35 AM 39.2 °F 33.0 °F 30.2 °F 70% 29.96 in 10.0 mi WNW 9.2 mph - N/A   Clear
6:55 AM 37.4 °F 32.1 °F 30.2 °F 75% 29.97 in 10.0 mi WNW 6.9 mph - N/A   Clear
7:15 AM 37.4 °F 31.4 °F 32.0 °F 81% 29.98 in 10.0 mi NW 8.1 mph - N/A   Clear
7:35 AM 37.4 °F 32.1 °F 32.0 °F 81% 29.98 in 10.0 mi NW 6.9 mph - N/A   Clear
7:55 AM 37.4 °F 31.4 °F 32.0 °F 81% 30.00 in 10.0 mi NW 8.1 mph - N/A   Scattered Clouds
8:15 AM 35.6 °F 29.2 °F 32.0 °F 87% 30.00 in 10.0 mi NNW 8.1 mph - N/A   Scattered Clouds
8:35 AM 37.4 °F 30.3 °F 32.0 °F 81% 30.01 in 10.0 mi NNW 10.4 mph - N/A   Clear
8:55 AM 37.4 °F 30.3 °F 32.0 °F 81% 30.01 in 10.0 mi North 10.4 mph - N/A   Clear
9:15 AM 39.2 °F 33.0 °F 32.0 °F 75% 30.01 in 10.0 mi North 9.2 mph - N/A   Clear
9:35 AM 41.0 °F 34.3 °F 32.0 °F 70% 30.02 in 10.0 mi North 11.5 mph - N/A   Clear
9:55 AM 41.0 °F 34.7 °F 30.2 °F 65% 30.03 in 10.0 mi North 10.4 mph - N/A   Clear
10:15 AM 41.0 °F 34.7 °F 30.2 °F 65% 30.03 in 10.0 mi North 10.4 mph - N/A   Clear
10:35 AM 41.0 °F 35.8 °F 28.4 °F 61% 30.03 in 10.0 mi North 8.1 mph - N/A   Clear
10:55 AM 42.8 °F 36.6 °F 28.4 °F 57% 30.03 in 10.0 mi North 11.5 mph - N/A   Clear
11:55 AM 44.6 °F 38.8 °F 24.8 °F 46% 30.04 in 10.0 mi North 11.5 mph 18.4 mph N/A   Clear
12:15 PM 44.6 °F 38.8 °F 23.0 °F 43% 30.04 in 10.0 mi North 11.5 mph 19.6 mph N/A   Clear
12:35 PM 46.4 °F 41.5 °F 24.8 °F 43% 30.04 in 10.0 mi North 10.4 mph - N/A   Clear
12:55 PM 46.4 °F 40.7 °F 23.0 °F 40% 30.04 in 10.0 mi North 12.7 mph - N/A   Clear
1:15 PM 46.4 °F 39.5 °F 23.0 °F 40% 30.03 in 10.0 mi North 17.3 mph 21.9 mph N/A   Clear
1:35 PM 46.4 °F 39.8 °F 24.8 °F 43% 30.04 in 10.0 mi NNW 16.1 mph - N/A   Clear
1:55 PM 46.4 °F 40.1 °F 23.0 °F 40% 30.04 in 10.0 mi North 15.0 mph 21.9 mph N/A   Clear
2:15 PM 46.4 °F 40.1 °F 23.0 °F 40% 30.04 in 10.0 mi North 15.0 mph - N/A   Clear
2:35 PM 46.4 °F 39.8 °F 23.0 °F 40% 30.04 in 10.0 mi North 16.1 mph 21.9 mph N/A   Clear
2:55 PM 46.4 °F 40.1 °F 23.0 °F 40% 30.05 in 10.0 mi NW 15.0 mph 26.5 mph N/A   Scattered Clouds
3:15 PM 46.4 °F 40.7 °F 21.2 °F 37% 30.04 in 10.0 mi NNW 12.7 mph 23.0 mph N/A   Clear
3:35 PM 46.4 °F 40.1 °F 19.4 °F 34% 30.05 in 10.0 mi NW 15.0 mph 21.9 mph N/A   Clear
3:55 PM 46.4 °F 40.4 °F 19.4 °F 34% 30.04 in 10.0 mi NNW 13.8 mph 21.9 mph N/A   Clear
4:15 PM 46.4 °F 40.4 °F 19.4 °F 34% 30.05 in 10.0 mi North 13.8 mph 19.6 mph N/A   Clear
4:35 PM 46.4 °F 41.1 °F 19.4 °F 34% 30.04 in 10.0 mi North 11.5 mph 17.3 mph N/A   Clear
4:55 PM 44.6 °F 37.8 °F 17.6 °F 34% 30.04 in 10.0 mi North 15.0 mph 21.9 mph N/A   Clear
5:15 PM 44.6 °F 38.1 °F 17.6 °F 34% 30.05 in 10.0 mi North 13.8 mph 18.4 mph N/A   Clear
5:35 PM 44.6 °F 38.1 °F 15.8 °F 31% 30.05 in 10.0 mi North 13.8 mph 19.6 mph N/A   Clear
5:55 PM 44.6 °F 38.8 °F 14.0 °F 29% 30.06 in 10.0 mi North 11.5 mph 19.6 mph N/A   Clear
6:15 PM 44.6 °F 38.4 °F 14.0 °F 29% 30.06 in 10.0 mi North 12.7 mph 18.4 mph N/A   Clear
6:35 PM 42.8 °F 36.6 °F 17.6 °F 36% 30.06 in 10.0 mi North 11.5 mph - N/A   Clear
6:55 PM 42.8 °F 38.0 °F 17.6 °F 36% 30.07 in 10.0 mi North 8.1 mph - N/A   Clear
7:15 PM 41.0 °F 34.3 °F 17.6 °F 39% 30.08 in 10.0 mi North 11.5 mph - N/A   Clear
7:35 PM 39.2 °F 32.5 °F 17.6 °F 42% 30.09 in 10.0 mi North 10.4 mph 16.1 mph N/A   Clear
7:55 PM 37.4 °F 32.1 °F 17.6 °F 45% 30.10 in 10.0 mi North 6.9 mph - N/A   Clear
8:15 PM 37.4 °F 32.8 °F 17.6 °F 45% 30.10 in 10.0 mi North 5.8 mph - N/A   Clear
8:35 PM 35.6 °F 30.7 °F 17.6 °F 48% 30.11 in 10.0 mi North 5.8 mph - N/A   Clear
8:55 PM 35.6 °F 30.7 °F 17.6 °F 48% 30.12 in 10.0 mi North 5.8 mph - N/A   Clear
9:15 PM 33.8 °F 29.6 °F 17.6 °F 52% 30.12 in 10.0 mi North 4.6 mph - N/A   Clear
9:35 PM 33.8 °F 30.8 °F 17.6 °F 52% 30.13 in 10.0 mi North 3.5 mph - N/A   Clear
9:55 PM 32.0 °F 27.5 °F 19.4 °F 60% 30.13 in 10.0 mi North 4.6 mph - N/A   Clear
10:15 PM 32.0 °F 27.5 °F 17.6 °F 55% 30.14 in 10.0 mi North 4.6 mph - N/A   Clear
10:35 PM 32.0 °F 26.4 °F 17.6 °F 55% 30.14 in 10.0 mi North 5.8 mph - N/A   Clear
10:55 PM 32.0 °F 26.4 °F 15.8 °F 51% 30.14 in 10.0 mi NNE 5.8 mph - N/A   Clear
11:15 PM 32.0 °F 27.5 °F 15.8 °F 51% 30.15 in 10.0 mi NNE 4.6 mph - N/A   Clear
11:35 PM 32.0 °F 27.5 °F 14.0 °F 48% 30.15 in 10.0 mi North 4.6 mph - N/A   Clear
11:55 PM 32.0 °F 27.5 °F 14.0 °F 48% 30.17 in 10.0 mi NNE 4.6 mph - N/A   Clear